Showing default

QIANFAN-57, 62787

Orbit data source: Space-Track

QIANFAN-57, 62787 is a Chinese payload satellite in LEO that was launched on Thu, 23 Jan 2025 UTC via a CHANG ZHENG 6A launch vehicle from the Taiyaun Space Center, China (TSC). Payload-class satellites include a variety of spacecraft equipped with specific instruments for various scientific and technological missions. These include communications satellites like Starlink; space stations such as the ISS; scientific satellites like the Hubble; Earth observation satellites from companies like Planet Labs, Umbra, and HawkEye 360; GPS; miniature CubeSats for education and research; and military/defense satellites.

Loading next visibility...
Identifier
62787, 2025-016C
Orbit
LEO
Country
Flag of CNCN / PRC
Related business
Manufacturer
SECM
Mission
Operational Commercial Communications
Bus & Motor
QIANFAN, Unknown motor
Mass
267 kg wet, ~267 kg dry
Launch date (UTC)
2025-01-23 (1 year ago)
Launch vehicle
CHANG ZHENG 6A
Launch site
Taiyaun Space Center, China (TSC)
Object type
Payload
Rocket body
Debris
Shape & HBR
Box + 1 Pan, 1.2 m
Radar Cross Section
13.200 m², Large (>1 m²)

Expand to show TLE details & history
Last TLE update: 5 hours ago

TLE from 5 hours ago
0 QIANFAN-57
1 62787U 25016C   26037.81758920  .00000112  00000-0  15465-3 0  9990
2 62787  88.9740  97.4110 0001910  83.1095 277.0273 13.50994131 54774
Epoch: 2026-02-06T19:37Z
TLE epoch observation values (Epoch: 2026-02-06T19:37:19.706Z)
Latitude
-0.00008°
Longitude
26.12887°
Altitude
1,071.383 km
Speed
7.316 km/s
True Right ascension
06h 29m 38s
True Declination
0° 00' 00"
Sunlit
Object was in full shadow at epoch
Visualization orbit readout
Latitude
Unknown
Longitude
Unknown
Altitude
Unknown
Speed
Unknown
Apparent Right ascension
Unknown
Apparent Declination
Unknown
Sunlit
N/A
Visualization observer readout
Local Sidereal Time
03:12:14
Azimuth
Unknown
Elevation
Unknown
Doppler factor
Unknown
Orbital elements
Apogee altitude
1,067.076 km
Perigee altitude
1,064.233 km
Semi-major axis
7,443.791 km
Eccentricity
0.00019
Inclination
88.974°
RAAN
97.411°
Arg. of periapsis
83.1095°
True anomaly
277.00558°
Mean anomaly
277.0273°
Eccentric anomaly
277.01644°
Mean motion
3.3795 °/min
Orbital period
106.52 mins
BSTAR
0.00015465
Loading maneuver chart data...
Computing Atmospheric mass density...
Loading historical data...
Loading historical data...
Loading historical data...
Loading historical data...
Loading historical data...
Loading historical data...
Loading historical data...

Documentation

Showing up to 5 results
|